Deer Park, WA

12:18 PM PST on February 17, 2018 (GMT -0800)
Deer Park

Weather History for KDEW - September, 2012

Change the Weather History Date:

Wednesday, September 5, 2012

  Actual Average Record
Temperature  
Mean Temperature 58 °F 60 °F  
Max Temperature 80 °F 78 °F 93 °F (2003)
Min Temperature 36 °F 43 °F 30 °F (2005)
Degree Days  
Heating Degree Days 7 6  
Month to date heating degree days 39 27  
Since 1 July heating degree days 132 171  
Cooling Degree Days 0 1  
Month to date cooling degree days 0 5  
Year to date cooling degree days 226 180  
Growing Degree Days 9 (Base 50)    
Moisture  
Dew Point 40 °F    
Average Humidity 54    
Maximum Humidity 85    
Minimum Humidity 23    
Precipitation  
Precipitation T in 0.03 in 0.61 in (2013)
Month to date precipitation T 0.17  
Year to date precipitation 17.73 13.61  
Sea Level Pressure  
Sea Level Pressure 30.01 in    
Wind  
Wind Speed 6 mph (NNE)    
Max Wind Speed 29 mph    
Max Gust Speed 36 mph    
Visibility 10 miles    
Events      
T = Trace of Precipitation, MM = Missing Value Source: NWS Daily Summary

Daily Weather History Graph

Daily Weather History Graph

Search for Another Location

Airport or City:

Trip Planner

Search our weather history database for the weather conditions in past years. The results will help you decide how hot, cold, wet, or windy it might be!

Date:

Astronomy

Sep. 05, 2012 Rise Set
Actual Time 6:14 AM PDT 7:21 PM PDT
Civil Twilight 5:42 AM PDT 7:53 PM PDT
Nautical Twilight 5:03 AM PDT 8:31 PM PDT
Astronomical Twilight 4:23 AM PDT 9:11 PM PDT
Moon 9:25 PM PDT (9/5) 11:50 AM PDT (9/5)
Length of Visible Light 14h 10m
Length of Day
13h 07m
Waning Gibbous, 75% of the Moon is Illuminated
Sep 5
Waning Gibbous
Sep 8
Last Quarter
Sep 15
New
Sep 22
First Quarter
Sep 29
Full

Hourly Weather History & Observations

Time (PDT) Temp. Windchill Dew Point Humidity Pressure Visibility Wind Dir Wind Speed Gust Speed Precip Events Conditions
12:53 AM 48.0 °F - 37.9 °F 68% 30.09 in 10.0 mi NW 9.2 mph - N/A   Clear
1:53 AM 44.1 °F - 37.0 °F 76% 30.09 in 10.0 mi Calm Calm - N/A   Clear
2:53 AM 45.0 °F - 37.0 °F 74% 30.08 in 10.0 mi Calm Calm - N/A   Clear
3:53 AM 41.0 °F - 36.0 °F 82% 30.08 in 10.0 mi Calm Calm - N/A   Clear
4:53 AM 39.0 °F 35.7 °F 36.0 °F 89% 30.07 in 10.0 mi NNE 4.6 mph - N/A   Clear
5:53 AM 41.0 °F - 36.0 °F 82% 30.07 in 10.0 mi Calm Calm - N/A   Clear
6:53 AM 42.1 °F - 37.0 °F 82% 30.08 in 10.0 mi Calm Calm - N/A   Clear
7:53 AM 52.0 °F - 39.9 °F 63% 30.09 in 10.0 mi Calm Calm - N/A   Clear
8:53 AM 60.1 °F - 42.1 °F 51% 30.08 in 10.0 mi ENE 4.6 mph - N/A   Clear
9:53 AM 64.0 °F - 43.0 °F 46% 30.07 in 10.0 mi SSW 3.5 mph - N/A   Clear
10:53 AM 69.1 °F - 41.0 °F 36% 30.06 in 10.0 mi SSW 3.5 mph - N/A   Clear
11:53 AM 72.0 °F - 39.9 °F 31% 30.03 in 10.0 mi WSW 6.9 mph - N/A   Scattered Clouds
12:53 PM 75.0 °F - 41.0 °F 29% 30.00 in 10.0 mi SSE 5.8 mph - N/A   Clear
1:53 PM 79.0 °F - 39.0 °F 24% 29.98 in 10.0 mi SW 10.4 mph - N/A   Clear
2:53 PM 79.0 °F - 39.0 °F 24% 29.95 in 10.0 mi West 11.5 mph - N/A   Clear
3:53 PM 78.1 °F - 41.0 °F 27% 29.93 in 10.0 mi SSE 4.6 mph - N/A   Clear
4:53 PM 79.0 °F - 37.0 °F 22% 29.91 in 10.0 mi Calm Calm - N/A   Clear
5:53 PM 77.0 °F - 39.9 °F 26% 29.90 in 10.0 mi ENE 8.1 mph - N/A   Overcast
6:53 PM 73.9 °F - 41.0 °F 30% 29.89 in 10.0 mi NE 6.9 mph - N/A   Partly Cloudy
7:53 PM 71.1 °F - 41.0 °F 34% 29.89 in 10.0 mi NE 4.6 mph - N/A   Mostly Cloudy
8:53 PM 64.0 °F - 46.9 °F 54% 29.95 in 10.0 mi North 25.3 mph 33.4 mph N/A   Scattered Clouds
9:53 PM 61.0 °F - 45.0 °F 56% 29.99 in 10.0 mi NNE 19.6 mph 32.2 mph N/A   Overcast
10:53 PM 57.9 °F - 48.0 °F 70% 29.97 in 10.0 mi NNE 10.4 mph - 0.00 in   Overcast
11:53 PM 55.9 °F - 48.0 °F 75% 29.99 in 10.0 mi North 10.4 mph - N/A   Mostly Cloudy